This is the latest recevied weather packets stored in our database for station/object KO4DYK. If no packets are shown the sender has not sent any weather packets the latest 10 day(s).
| Time | Temp. | Humidity | Pressure | Rain* | Wind** | Luminosity | Snow |
|---|---|---|---|---|---|---|---|
| 1777940420 | 23.33° C | 51% | 1014.2 hPa | 0 mm | - | 14 W/m² | - |
| 1777940117 | 23.33° C | 51% | 1014.2 hPa | 0 mm | - | 17 W/m² | - |
| 1777939814 | 23.89° C | 50% | 1014.3 hPa | 0 mm | - | 21 W/m² | - |
| 1777939512 | 23.89° C | 50% | 1014.4 hPa | 0 mm | - | 24 W/m² | - |
| 1777939209 | 23.89° C | 50% | 1014.5 hPa | 0 mm | - | 28 W/m² | - |
| 1777938906 | 23.89° C | 49% | 1014.4 hPa | 0 mm | - | 31 W/m² | - |
| 1777938602 | 23.89° C | 50% | 1014.4 hPa | 0 mm | - | 32 W/m² | - |
| 1777938299 | 24.44° C | 49% | 1014.3 hPa | 0 mm | - | 37 W/m² | - |
| 1777937996 | 24.44° C | 48% | 1014.4 hPa | 0 mm | - | 59 W/m² | - |
| 1777937691 | 24.44° C | 48% | 1014.4 hPa | 0 mm | - | 53 W/m² | - |
| 1777937389 | 24.44° C | 48% | 1014.4 hPa | 0 mm | - | 45 W/m² | - |
| 1777937085 | 24.44° C | 48% | 1014.3 hPa | 0 mm | - | 42 W/m² | - |
| 1777936783 | 24.44° C | 48% | 1014.2 hPa | 0 mm | - | 44 W/m² | - |
| 1777936479 | 24.44° C | 49% | 1014.3 hPa | 0 mm | - | 45 W/m² | - |
| 1777936175 | 24.44° C | 48% | 1014.4 hPa | 0 mm | - | 47 W/m² | - |
| 1777935872 | 25° C | 48% | 1014.4 hPa | 0 mm | - | 50 W/m² | - |
| 1777935571 | 25° C | 48% | 1014.3 hPa | 0 mm | - | 54 W/m² | - |
| 1777935268 | 25° C | 47% | 1014.4 hPa | 0 mm | - | 55 W/m² | - |
| 1777934965 | 25° C | 47% | 1014.4 hPa | 0 mm | - | 60 W/m² | - |
| 1777934661 | 25° C | 47% | 1014.4 hPa | 0 mm | - | 69 W/m² | - |
| 1777934359 | 25° C | 47% | 1014.4 hPa | 0 mm | - | 69 W/m² | - |
| 1777934054 | 25.56° C | 47% | 1014.4 hPa | 0 mm | - | 58 W/m² | - |
| 1777933750 | 25.56° C | 48% | 1014.3 hPa | 0 mm | - | 125 W/m² | - |
| 1777933448 | 25.56° C | 47% | 1014.5 hPa | 0 mm | - | 67 W/m² | - |
| 1777933146 | 25.56° C | 46% | 1014.4 hPa | 0 mm | - | 112 W/m² | - |
* Rain latest hour (hover to see other rain measurements)
** Current wind speed in m/s (hover to see current wind gust speed)